Weather History for Mackinac Island, MI

Change the Weather History Date:

Friday, November 5, 2010

  Actual Average Record
Temperature  
Mean Temperature 32 °F -  
Max Temperature 33 °F 43 °F 71 °F (2008)
Min Temperature 30 °F 34 °F 24 °F (1991)
Degree Days  
Heating Degree Days 34    
Moisture  
Dew Point 23 °F    
Average Humidity 68    
Maximum Humidity 80    
Minimum Humidity 60    
Precipitation  
Precipitation 0.00 in - - ()
Sea Level Pressure  
Sea Level Pressure 29.90 in    
Wind  
Wind Speed 11 mph (NNE)    
Max Wind Speed 15 mph    
Max Gust Speed 23 mph    
Visibility 10 miles    
Events      
Averages and records for this station are not official NWS values.
T = Trace of Precipitation, MM = Missing Value Source: NWS Daily Summary

Daily Weather History Graph

Daily Weather History Graph

Search for Another Location

Airport:

Trip Planner

Search our weather history database for the weather conditions in past years. The results will help you decide how hot, cold, wet, or windy it might be!

Date:

Astronomy

Nov. 05, 2010 Rise Set
Actual Time 8:24 AM EDT 6:19 PM EDT
Civil Twilight 7:52 AM EDT 6:50 PM EDT
Nautical Twilight 7:17 AM EDT 7:26 PM EDT
Astronomical Twilight 6:42 AM EDT 8:00 PM EDT
Moon 7:50 AM EDT (11/5) 5:38 PM EDT (11/5)
Length of Visible Light 10h 57m
Length of Day
9h 54m
Waning Crescent, 0% of the Moon is Illuminated
Nov 5
Waning Crescent
Nov 6
New
Nov 13
First Quarter
Nov 21
Full
Nov 28
Last Quarter

Hourly Weather History & Observations

Time (EDT) Temp. Windchill Dew Point Humidity Pressure Visibility Wind Dir Wind Speed Gust Speed Precip Events Conditions
12:15 AM 33.8 °F 25.8 °F 26.6 °F 75% 29.90 in 10.0 mi North 10.4 mph 16.1 mph N/A   Overcast
12:35 AM 33.8 °F 25.3 °F 26.6 °F 75% 29.89 in 10.0 mi NE 11.5 mph 18.4 mph N/A   Overcast
12:55 AM 33.8 °F 26.4 °F 26.6 °F 75% 29.89 in 10.0 mi NNE 9.2 mph 16.1 mph N/A   Overcast
1:15 AM 32.0 °F 22.5 °F 26.6 °F 80% 29.89 in 10.0 mi NE 12.7 mph 19.6 mph N/A   Mostly Cloudy
1:35 AM 32.0 °F 22.5 °F 24.8 °F 75% 29.89 in 10.0 mi NNE 12.7 mph 19.6 mph N/A   Mostly Cloudy
1:55 AM 32.0 °F 22.1 °F 26.6 °F 80% 29.89 in 10.0 mi NE 13.8 mph 18.4 mph N/A   Overcast
2:15 AM 32.0 °F 23.0 °F 24.8 °F 75% 29.89 in 10.0 mi NNE 11.5 mph 19.6 mph N/A   Overcast
2:35 AM 32.0 °F 23.0 °F 24.8 °F 75% 29.89 in 10.0 mi NNE 11.5 mph 18.4 mph N/A   Overcast
2:55 AM 32.0 °F 24.8 °F 26.6 °F 80% 29.90 in 10.0 mi NE 8.1 mph - N/A   Overcast
3:15 AM 32.0 °F 24.2 °F 26.6 °F 80% 29.89 in 10.0 mi NNE 9.2 mph - N/A   Overcast
3:35 AM 32.0 °F 23.6 °F 24.8 °F 75% 29.89 in 10.0 mi NNE 10.4 mph 17.3 mph N/A   Overcast
3:55 AM 32.0 °F 23.0 °F 24.8 °F 75% 29.89 in 10.0 mi NE 11.5 mph 18.4 mph N/A   Overcast
4:15 AM 32.0 °F 23.6 °F 24.8 °F 75% 29.88 in 10.0 mi NE 10.4 mph 17.3 mph N/A   Overcast
4:35 AM 32.0 °F 24.2 °F 23.0 °F 69% 29.88 in 10.0 mi NNE 9.2 mph 16.1 mph N/A   Overcast
4:55 AM 32.0 °F 24.8 °F 23.0 °F 69% 29.88 in 10.0 mi NE 8.1 mph - N/A   Overcast
5:15 AM 32.0 °F 24.8 °F 23.0 °F 69% 29.88 in 10.0 mi NE 8.1 mph - N/A   Overcast
5:35 AM 32.0 °F 23.6 °F 23.0 °F 69% 29.89 in 10.0 mi NNE 10.4 mph - N/A   Overcast
5:55 AM 32.0 °F 26.4 °F 23.0 °F 69% 29.89 in 10.0 mi North 5.8 mph - N/A   Overcast
6:15 AM 32.0 °F 24.2 °F 23.0 °F 69% 29.89 in 10.0 mi NNE 9.2 mph - N/A   Overcast
6:35 AM 32.0 °F 23.0 °F 23.0 °F 69% 29.90 in 10.0 mi NNE 11.5 mph - N/A   Overcast
6:55 AM 32.0 °F 24.8 °F 21.2 °F 64% 29.90 in 10.0 mi NNE 8.1 mph - N/A   Overcast
7:15 AM 32.0 °F 23.0 °F 21.2 °F 64% 29.90 in 10.0 mi NE 11.5 mph 16.1 mph N/A   Overcast
7:35 AM 30.2 °F 20.8 °F 21.2 °F 69% 29.90 in 10.0 mi NNE 11.5 mph 17.3 mph N/A   Overcast
7:55 AM 30.2 °F 21.9 °F 21.2 °F 69% 29.90 in 10.0 mi NNE 9.2 mph 16.1 mph N/A   Overcast
8:15 AM 30.2 °F 21.9 °F 21.2 °F 69% 29.90 in 10.0 mi NE 9.2 mph 19.6 mph N/A   Overcast
8:35 AM 30.2 °F 21.3 °F 23.0 °F 75% 29.90 in 10.0 mi NE 10.4 mph 17.3 mph N/A   Overcast
8:55 AM 32.0 °F 22.5 °F 21.2 °F 64% 29.91 in 10.0 mi NE 12.7 mph 19.6 mph N/A   Overcast
9:15 AM 32.0 °F 22.5 °F 21.2 °F 64% 29.91 in 10.0 mi NNE 12.7 mph 16.1 mph N/A   Overcast
9:35 AM 32.0 °F 23.0 °F 21.2 °F 64% 29.91 in 10.0 mi North 11.5 mph 19.6 mph N/A   Overcast
9:55 AM 32.0 °F 24.2 °F 21.2 °F 64% 29.92 in 10.0 mi NNE 9.2 mph 16.1 mph N/A   Overcast
10:15 AM 32.0 °F 23.6 °F 21.2 °F 64% 29.91 in 10.0 mi North 10.4 mph 19.6 mph N/A   Overcast
10:35 AM 32.0 °F 24.2 °F 21.2 °F 64% 29.91 in 10.0 mi NNE 9.2 mph 16.1 mph N/A   Overcast
10:55 AM 32.0 °F 23.0 °F 19.4 °F 60% 29.91 in 10.0 mi NNE 11.5 mph 17.3 mph N/A   Overcast
11:15 AM 32.0 °F 23.0 °F 21.2 °F 64% 29.91 in 10.0 mi NNE 11.5 mph 20.7 mph N/A   Overcast
11:35 AM 32.0 °F 23.0 °F 21.2 °F 64% 29.92 in 10.0 mi NNE 11.5 mph 20.7 mph N/A   Overcast
11:55 AM 32.0 °F 23.0 °F 21.2 °F 64% 29.92 in 10.0 mi North 11.5 mph 19.6 mph N/A   Overcast
12:15 PM 32.0 °F 23.6 °F 21.2 °F 64% 29.92 in 10.0 mi North 10.4 mph 16.1 mph N/A   Overcast
12:35 PM 32.0 °F 22.5 °F 21.2 °F 64% 29.92 in 10.0 mi NNE 12.7 mph 18.4 mph N/A   Overcast
12:55 PM 32.0 °F 23.6 °F 21.2 °F 64% 29.91 in 10.0 mi North 10.4 mph 17.3 mph N/A   Overcast
1:15 PM 32.0 °F 22.5 °F 21.2 °F 64% 29.91 in 10.0 mi North 12.7 mph 18.4 mph N/A   Overcast
1:35 PM 32.0 °F 23.6 °F 19.4 °F 60% 29.91 in 10.0 mi North 10.4 mph 20.7 mph N/A   Overcast
1:55 PM 32.0 °F 24.8 °F 19.4 °F 60% 29.91 in 10.0 mi North 8.1 mph 18.4 mph N/A   Overcast
2:15 PM 32.0 °F 24.2 °F 19.4 °F 60% 29.90 in 10.0 mi North 9.2 mph 20.7 mph N/A   Overcast
2:35 PM 32.0 °F 21.6 °F 21.2 °F 64% 29.90 in 10.0 mi North 15.0 mph 20.7 mph N/A   Overcast
2:55 PM 32.0 °F 23.0 °F 21.2 °F 64% 29.91 in 10.0 mi North 11.5 mph 18.4 mph N/A   Overcast
3:15 PM 32.0 °F 24.2 °F 21.2 °F 64% 29.91 in 10.0 mi NNE 9.2 mph 16.1 mph N/A   Overcast
3:35 PM 32.0 °F 23.0 °F 21.2 °F 64% 29.91 in 10.0 mi North 11.5 mph 19.6 mph N/A   Overcast
3:55 PM 32.0 °F 24.8 °F 21.2 °F 64% 29.92 in 10.0 mi North 8.1 mph 18.4 mph N/A   Overcast
4:15 PM 32.0 °F 25.6 °F 21.2 °F 64% 29.92 in 10.0 mi North 6.9 mph - N/A   Overcast
4:35 PM 32.0 °F 25.6 °F 23.0 °F 69% 29.93 in 10.0 mi North 6.9 mph 23.0 mph N/A   Overcast
4:55 PM 32.0 °F 24.2 °F 23.0 °F 69% 29.94 in 10.0 mi North 9.2 mph 17.3 mph N/A   Overcast
5:15 PM 32.0 °F 23.6 °F 21.2 °F 64% 29.95 in 10.0 mi North 10.4 mph 16.1 mph N/A   Overcast
5:35 PM 32.0 °F 23.6 °F 21.2 °F 64% 29.96 in 10.0 mi North 10.4 mph 18.4 mph N/A   Overcast
5:55 PM 32.0 °F 26.4 °F 19.4 °F 60% 29.96 in 10.0 mi North 5.8 mph - N/A   Overcast
6:15 PM 32.0 °F 22.1 °F 19.4 °F 60% 29.97 in 10.0 mi NNE 13.8 mph 20.7 mph N/A   Overcast
6:35 PM 32.0 °F 24.2 °F 19.4 °F 60% 29.98 in 10.0 mi North 9.2 mph 18.4 mph N/A   Overcast
6:55 PM 32.0 °F 24.8 °F 21.2 °F 64% 29.98 in 10.0 mi North 8.1 mph 17.3 mph N/A   Overcast
7:15 PM 32.0 °F 23.6 °F 19.4 °F 60% 29.99 in 10.0 mi NNE 10.4 mph 16.1 mph N/A   Overcast
7:35 PM 32.0 °F 24.2 °F 19.4 °F 60% 30.00 in 10.0 mi North 9.2 mph - N/A   Overcast
7:55 PM 32.0 °F 26.4 °F 19.4 °F 60% 30.01 in 10.0 mi NNE 5.8 mph - N/A   Overcast
8:15 PM 32.0 °F 25.6 °F 19.4 °F 60% 30.01 in 10.0 mi NNE 6.9 mph 17.3 mph N/A   Overcast
8:35 PM 32.0 °F 27.5 °F 19.4 °F 60% 30.02 in 10.0 mi North 4.6 mph - N/A   Overcast
8:55 PM 32.0 °F 26.4 °F 19.4 °F 60% 30.02 in 10.0 mi NNE 5.8 mph - N/A   Overcast
9:15 PM 32.0 °F 27.5 °F 19.4 °F 60% 30.03 in 10.0 mi North 4.6 mph - N/A   Overcast
9:35 PM 32.0 °F 26.4 °F 19.4 °F 60% 30.04 in 10.0 mi NNE 5.8 mph - N/A   Overcast
9:55 PM 32.0 °F 26.4 °F 19.4 °F 60% 30.04 in 10.0 mi NE 5.8 mph - N/A   Overcast
10:15 PM 32.0 °F 25.6 °F 19.4 °F 60% 30.05 in 10.0 mi NE 6.9 mph - N/A   Overcast
10:35 PM 32.0 °F 28.7 °F 17.6 °F 55% 30.06 in 10.0 mi ENE 3.5 mph - N/A   Overcast
10:55 PM 32.0 °F 26.4 °F 19.4 °F 60% 30.07 in 10.0 mi NE 5.8 mph - N/A   Overcast
11:15 PM 32.0 °F 25.6 °F 19.4 °F 60% 30.07 in 10.0 mi NE 6.9 mph - N/A   Overcast
11:35 PM 32.0 °F 26.4 °F 17.6 °F 55% 30.07 in 10.0 mi NE 5.8 mph - N/A   Overcast
11:55 PM 30.2 °F 24.3 °F 17.6 °F 60% 30.07 in 10.0 mi NE 5.8 mph - N/A   Overcast